+ View the NASA Portal
+ Center for Near-Earth Object Studies
IMPORTANT:
The SSD Announcement email list is now available. Major changes are coming in the near future, including possible hostname and/or URL changes. To be notified of such changes, subscribe to this email list.
Please visit
this page
for more details.
Don't show this message again
JPL Small-Body Database Browser
Search:
[
help
]
351130 (2003 WO101)
Classification:
Main-belt Asteroid
SPK-ID:
2351130
[
Ephemeris
|
Orbit Diagram
|
Orbital Elements
|
Mission Design
|
Physical Parameters
|
Discovery Circumstances
|
Close-Approach Data
]
[ show orbit diagram ]
Orbital Elements at Epoch 2458600.5 (2019-Apr-27.0) TDB
Reference:
JPL 5
(heliocentric ecliptic J2000)
Element
Value
Uncertainty (1-sigma)
Units
e
.2711735775232559
9.0913e-08
a
2.668061546862655
1.8938e-08
au
q
1.944553752147676
2.4568e-07
au
i
11.33662173851416
1.0528e-05
deg
node
172.4447521485679
3.9307e-05
deg
peri
241.9581820921755
4.5421e-05
deg
M
195.8068926234428
1.7485e-05
deg
t
p
2459326.513361711894
(2021-Apr-22.01336171)
8.1297e-05
TDB
period
1591.813532201892
4.36
1.6948e-05
4.64e-08
d
yr
n
.2261571426032712
2.4079e-09
deg/d
Q
3.391569341577633
2.4073e-08
au
Orbit Determination Parameters
# obs. used (total)
137
data-arc span
5726 days (15.68 yr)
first obs. used
2003-09-22
last obs. used
2019-05-27
planetary ephem.
DE431
SB-pert. ephem.
SB431-N16
condition code
0
norm. resid. RMS
.58125
source
ORB
producer
Otto Matic
solution date
2019-Sep-24 06:36:54
Additional Information
Earth MOID
= .983091 au
Jupiter MOID
= 2.11026 au
T_jup
= 3.302
[ show covariance matrix ]
[
Ephemeris
|
Orbit Diagram
|
Orbital Elements
|
Mission Design
|
Physical Parameters
|
Discovery Circumstances
|
Close-Approach Data
]
Physical Parameter Table
Parameter
Symbol
Value
Units
Sigma
Reference
Notes
absolute magnitude
H
17.0
n/a
MPO440577
351130 (2003 WO101)
Discovered 2003-Nov-21 by CSS at Catalina
Reference:
20130127/Numbers.arc
Last Updated:
2013-01-31
[ show close-approach data ]
[
Ephemeris
|
Orbit Diagram
|
Orbital Elements
|
Mission Design
|
Physical Parameters
|
Discovery Circumstances
|
Close-Approach Data
]
2019-Dec-10 19:54 UT
(server date/time)
Site Manager:
Ryan S. Park
Webmaster
:
Alan B. Chamberlin